Home > Weather > Norwich > Past weeks

Flag for United Kingdom Past Weather in Norwich, England, United Kingdom — Yesterday and Last 2 Weeks

Now
55 °F

Overcast.


Feels Like: 55 °F
Forecast: 45 / 59 °F
Wind: 2 mph from North

Location: Norwich Weather Centre

Current Time: May 26, 2016 at 1:46:14 PM

Latest Report: May 26, 2016 at 1:20 PM


Visibility: N/A

Pressure: 30.04 "Hg

Humidity: 82%

Dew Point: 50 °F

Location of NorwichLocation

Past Weather in Norwich — Graph

°F

Norwich Temperature Yesterday

Maximum temperature yesterday: 52 °F (at 11:50 AM)
Minimum temperature yesterday: 46 °F (at 2:20 AM)
Average temperature yesterday: 50 °F

High & Low Weather Summary for the Past Weeks

 TemperatureHumidityPressure
High66 °F (May 11, 12:20 PM)100% (May 13, 1:20 AM)30.18 "Hg (May 13, 1:20 AM)
Low37 °F (May 15, 12:20 AM)52% (May 17, 4:20 PM)29.59 "Hg (May 18, 4:50 PM)
Average54 °F82%29.93 "Hg
* Reported May 11 12:20 PM — May 26 12:50 PM, Norwich, Weather by CustomWeather, © 2016

Note: Actual official high and low records may vary slightly from our data, if they occured in-between our weather recording intervals... More about our weather records

Advertising

Norwich Weather History for the Previous 24 Hours

Scroll right to see more
 ConditionsComfort  
Time TempWeatherWind HumidityBarometerVisibility
12:50 PM
Thu, May 26
55 °FPartly sunny.2 mph77%30.04 "HgN/A
12:20 PM55 °FPartly sunny.2 mph77%30.04 "HgN/A
11:50 AM54 °FBroken clouds.3 mph88%30.04 "HgN/A
11:20 AM54 °FOvercast.3 mph82%30.04 "HgN/A
10:50 AM54 °FOvercast.6 mph88%30.04 "HgN/A
10:20 AM54 °FPartly sunny.7 mph88%30.04 "HgN/A
9:50 AM54 °FOvercast.5 mph88%30.04 "HgN/A
9:20 AM52 °FMore clouds than sun.6 mph94%30.04 "HgN/A
8:50 AM52 °FBroken clouds.5 mph100%30.04 "Hg5 mi
8:20 AM52 °FPartly sunny.3 mph94%30.04 "Hg4 mi
7:50 AM52 °FFog.5 mph94%30.01 "Hg4 mi
7:20 AM50 °FFog.5 mph100%30.01 "Hg3 mi
6:50 AM50 °FBroken clouds.3 mph100%30.01 "Hg4 mi
6:20 AM50 °FBroken clouds.3 mph100%30.01 "Hg3 mi
5:50 AM50 °FPartly sunny.3 mph100%30.01 "Hg3 mi
5:20 AM50 °FMostly cloudy.5 mph100%30.01 "HgN/A
4:50 AM50 °FOvercast.3 mph100%30.01 "HgN/A
4:20 AM50 °FPartly cloudy.3 mph100%29.98 "HgN/A
3:50 AM50 °FMostly cloudy.3 mph100%29.98 "HgN/A
3:20 AM50 °FOvercast.3 mph100%29.98 "HgN/A
2:50 AM50 °FPartly cloudy.2 mph100%29.98 "HgN/A
2:20 AM50 °FOvercast.2 mph100%29.98 "HgN/A
1:50 AM50 °FMostly cloudy.3 mph100%29.98 "HgN/A
1:20 AM50 °FPassing clouds.3 mph100%29.98 "HgN/A
12:50 AM50 °FMostly cloudy.5 mph100%30.01 "HgN/A
12:20 AM50 °FPartly cloudy.5 mph100%30.01 "HgN/A
11:50 PM
Wed, May 25
50 °FMostly cloudy.3 mph100%29.98 "HgN/A
11:20 PM50 °FPartly cloudy.5 mph100%29.98 "HgN/A
10:50 PM50 °FPassing clouds.6 mph100%29.98 "HgN/A
10:20 PM50 °FMostly cloudy.5 mph100%29.98 "HgN/A
9:50 PM50 °FDrizzle. Fog.6 mph100%29.98 "Hg3 mi
9:20 PM52 °FBroken clouds.5 mph100%29.98 "Hg4 mi
8:50 PM52 °FDrizzle. Fog.6 mph94%29.98 "Hg3 mi
8:20 PM52 °FDrizzle. Fog.7 mph94%29.98 "Hg3 mi
7:50 PM52 °FDrizzle. Fog.7 mph100%29.98 "Hg3 mi
7:20 PM52 °FDrizzle. Fog.6 mph100%29.98 "Hg3 mi
6:50 PM52 °FDrizzle. Fog.6 mph94%29.98 "Hg3 mi
6:20 PM52 °FDrizzle. Fog.6 mph94%29.98 "Hg3 mi
5:50 PM52 °FDrizzle. Fog.7 mph94%29.98 "Hg3 mi
5:20 PM52 °FDrizzle. Fog.8 mph100%29.98 "Hg3 mi
4:50 PM52 °FDrizzle. Partly sunny.8 mph100%29.98 "Hg3 mi
3:50 PM52 °FDrizzle. Broken clouds.8 mph94%29.98 "Hg3 mi
3:20 PM52 °FDrizzle. Broken clouds.8 mph94%30.01 "Hg3 mi
2:50 PM52 °FDrizzle. Broken clouds.9 mph94%30.01 "Hg4 mi
2:20 PM52 °FDrizzle. Broken clouds.8 mph94%30.01 "Hg4 mi
1:50 PM52 °FLight rain. Broken clouds.8 mph94%30.01 "Hg3 mi
1:20 PM52 °FLight rain. Broken clouds.8 mph94%30.01 "Hg3 mi
Weather by CustomWeather, © 2016

See weather overviewHow to use our weather pages